Temp
34 34 34 34 33 33 34 34 34 34 32 31 35 34 35 33 33 33 33 32 32 32 32 30 29 28 28 27 26 25 24 24 23 23 24 24 25 25 25 25 24 24 24 24
33 34 33 33 33 34 34 34 34 34 34 34 35 35 36 35 33 33 33 33 33 33 33 31 30 29 28 27 26 25 24 24 23 24 24 25 25 25 25 25 24 24 24 24
34 34 32 32 33 33 34 33 34 33 34 36 35 36 35 34 34 34 34 34 34 33 33 32 31 29 29 28 27 25 24 24 23 24 24 24 24 25 25 25 25 24 24 24
33 32 31 32 32 32 33 33 33 33 33 34 35 35 36 36 35 34 34 34 34 34 33 33 31 30 29 29 28 26 25 24 24 24 25 24 25 26 26 26 26 26 24 24
30 31 31 31 31 32 33 32 32 33 33 34 35 34 37 36 36 36 36 35 35 35 34 34 33 31 30 30 29 27 26 25 25 24 24 24 25 27 27 27 26 25 25 25
31 30 31 31 31 31 31 32 33 33 34 33 35 35 36 37 36 37 36 36 36 36 35 34 33 32 31 30 30 29 26 25 24 24 23 24 25 26 27 26 26 26 26 25
30 30 30 30 31 31 32 33 32 32 33 33 36 35 35 37 36 34 34 35 35 36 36 35 34 33 31 31 30 29 27 25 25 24 24 24 24 25 26 26 26 27 27 27
30 29 30 29 30 29 30 31 32 31 33 35 32 33 35 36 34 33 34 34 33 33 34 36 36 34 32 31 30 30 28 26 25 25 25 24 24 25 25 26 27 27 28 28
29 29 29 29 29 30 30 30 31 31 32 31 33 34 34 35 33 33 33 33 32 32 33 33 33 35 34 32 31 30 29 27 26 26 25 24 24 24 26 26 26 27 27 28
28 28 29 28 29 29 29 30 30 31 29 30 33 32 33 33 31 32 32 32 31 31 32 33 33 32 34 33 31 30 29 28 27 27 26 25 25 24 25 26 26 26 27 26
28 28 28 27 28 29 29 29 29 31 31 31 31 33 33 31 31 31 31 32 32 30 31 31 32 31 33 34 32 31 30 29 27 27 27 26 26 25 25 25 25 25 26 26
27 28 27 28 28 27 27 29 29 30 29 30 30 30 34 31 31 31 31 31 31 30 30 30 30 29 32 34 33 32 31 29 28 27 27 26 26 26 25 25 25 25 26 26
27 27 27 28 28 26 27 28 28 28 29 28 29 31 32 32 31 30 30 30 30 29 29 28 29 28 28 32 32 31 31 30 29 27 26 27 27 26 26 26 26 26 26 26
23 26 26 27 28 27 26 26 27 27 27 28 29 30 31 31 30 29 29 29 28 28 27 28 27 25 25 28 30 30 30 30 29 28 27 27 27 27 27 26 26 25 25 26
25 24 25 26 26 26 26 26 27 26 26 26 28 28 29 29 28 28 27 27 27 27 27 26 26 25 23 25 28 29 29 29 29 28 27 27 27 27 27 27 26 26 25 26
25 23 23 23 25 25 25 26 26 26 26 26 27 27 29 29 29 28 26 26 26 27 26 26 25 24 22 22 25 26 28 28 27 28 27 27 26 26 26 26 26 25 25 25
24 23 23 23 24 24 23 25 26 26 27 27 26 27 28 26 26 26 26 25 26 26 25 24 24 24 21 20 22 25 26 26 26 26 27 26 26 25 25 25 25 25 25 25
22 22 23 23 23 22 25 26 26 25 26 26 26 25 23 23 24 25 26 25 25 23 22 22 22 22 21 18 19 22 24 24 21 23 26 25 25 24 24 24 25 25 25 25
23 22 23 22 24 24 25 25 24 23 24 25 23 22 22 22 22 24 26 23 22 22 22 21 20 20 20 18 18 20 22 24 25 25 25 24 24 23 23 23 23 24 25 25
22 21 21 22 21 21 24 23 23 22 21 22 20 21 21 21 21 23 23 21 22 21 20 20 19 18 19 19 18 18 22 23 24 25 24 24 22 21 22 22 23 23 23 24
22 21 21 22 22 23 24 22 22 19 21 20 20 20 20 20 21 21 21 20 21 21 20 19 19 18 17 18 18 18 21 23 22 21 23 22 22 22 22 22 22 21 22 22
21 21 22 22 21 21 22 22 19 20 20 20 20 20 20 20 20 20 20 20 20 19 19 17 18 18 17 17 17 17 19 18 19 20 20 19 19 19 20 20 20 20 20 20
20 21 21 21 22 22 22 21 21 20 19 19 19 19 19 19 20 20 20 18 19 18 17 15 14 16 15 15 17 17 16 16 17 17 17 17 17 18 18 19 19 18 18 18
21 21 20 20 22 21 21 21 20 18 17 16 17 18 17 18 18 17 17 18 18 17 16 14 14 14 13 12 14 15 16 17 17 17 17 17 17 16 17 17 17 18 18 18
22 20 20 20 22 21 21 20 18 13 14 15 16 15 16 16 18 17 15 14 14 12 11 12 12 12 10 11 12 13 15 17 18 18 18 17 19 19 18 16 17 17 17 18
22 21 21 21 21 20 20 19 13 13 12 13 13 15 15 15 13 12 11 10 9 9 9 8 10 9 9 9 9 11 13 15 16 15 15 15 16 16 16 15 15 16 16 17
Height
777 782 787 781 783 785 785 786 791 787 786 793 781 781 773 775 777 780 783 787 790 792 796 802 808 813 818 823 828 832 835 838 842 845 848 851 852 854 856 858 861 863 865 867
786 788 781 784 783 784 784 790 788 780 778 784 775 774 763 764 774 774 778 781 784 787 790 796 802 808 814 818 824 828 832 836 839 842 845 847 849 851 853 855 858 861 863 865
784 781 786 788 788 792 785 792 789 796 781 769 773 772 768 765 765 768 769 771 775 779 784 790 796 802 807 813 818 824 828 833 836 839 843 846 848 849 851 852 855 857 860 863
786 790 794 792 793 794 794 787 791 792 794 795 773 794 770 760 766 765 764 765 769 774 779 783 791 797 801 805 812 818 823 828 833 836 838 841 842 844 845 848 851 853 857 860
806 798 797 798 798 794 792 790 793 791 793 788 783 794 766 762 765 758 756 758 762 766 773 777 782 789 796 800 805 811 817 822 826 831 834 837 839 839 842 844 847 851 854 857
798 795 796 798 795 795 792 792 788 786 788 802 781 780 775 759 760 753 753 752 756 759 764 771 776 783 788 794 798 804 810 815 820 824 828 832 834 836 837 841 843 846 849 853
802 803 798 797 799 792 792 791 804 805 800 797 757 773 770 751 755 768 767 763 760 755 755 760 767 774 781 786 791 796 802 807 812 817 822 826 830 833 836 838 841 842 844 846
809 821 806 803 806 809 803 800 801 817 797 782 782 793 771 751 762 765 764 765 765 765 761 754 757 764 771 778 783 788 793 800 805 809 814 819 824 828 831 834 835 838 839 841
812 813 806 806 804 805 804 811 796 807 789 806 782 768 762 757 766 770 768 769 771 769 765 762 761 756 759 767 772 778 786 792 796 802 808 812 817 821 824 827 831 833 835 836
813 822 808 807 805 804 806 801 811 803 823 817 780 788 781 766 780 775 773 771 771 769 766 762 759 757 749 753 763 770 775 782 788 793 798 804 809 813 818 822 824 828 830 833
810 818 814 813 811 806 806 809 807 797 796 804 800 781 763 777 777 777 771 768 767 768 765 762 757 753 742 742 751 758 765 771 778 784 788 795 800 806 811 814 818 822 825 828
817 813 820 810 804 810 810 802 803 805 806 800 801 793 755 770 771 772 771 769 767 768 767 763 759 755 740 738 744 750 757 763 768 775 781 785 793 798 803 807 811 815 818 822
817 817 820 813 811 812 812 806 802 803 802 809 808 784 762 765 768 773 776 770 768 769 767 765 760 755 749 741 743 746 751 756 763 769 774 780 784 789 794 798 803 807 811 814
827 817 822 817 807 807 814 813 808 809 812 800 787 782 769 769 774 775 776 774 770 769 767 763 763 763 759 747 742 745 748 751 756 761 766 770 774 778 783 788 793 798 802 806
821 828 819 814 812 810 811 811 807 809 807 810 789 786 781 778 780 777 776 774 771 769 767 764 762 760 759 751 743 744 746 747 751 754 758 761 766 771 775 780 785 789 794 798
819 830 827 826 813 813 815 808 806 805 803 798 794 788 775 772 770 774 776 775 773 767 767 764 761 759 758 755 746 745 743 746 749 750 752 755 759 764 769 773 776 782 785 788
824 826 829 824 813 818 821 802 799 794 790 791 794 781 775 780 780 778 775 775 772 766 766 764 761 758 758 755 750 743 740 740 745 749 751 752 753 756 761 767 773 776 778 782
828 832 825 824 818 831 796 793 793 794 791 787 785 784 789 792 783 777 770 773 768 772 772 769 763 757 755 752 749 744 741 737 740 742 749 749 748 751 755 761 767 769 772 774
824 825 824 830 814 803 800 795 800 802 798 789 795 797 795 793 791 776 765 773 775 773 768 768 764 758 753 749 745 740 737 736 736 737 742 742 740 740 743 749 758 762 765 766
824 828 830 822 830 826 801 801 805 806 808 797 802 799 796 793 790 776 770 777 774 771 768 763 761 757 749 745 741 736 728 725 727 730 732 738 739 740 736 737 742 755 757 757
824 825 825 816 817 808 797 807 809 824 809 803 801 798 794 792 786 781 778 775 770 767 763 759 755 751 745 739 738 733 726 721 722 724 726 731 735 737 735 736 742 744 747 753
826 825 815 813 820 818 806 808 820 807 802 799 795 791 787 782 778 776 773 769 765 765 759 757 748 743 741 734 735 730 725 723 724 725 728 728 735 737 739 741 743 732 722 749
830 820 821 819 806 799 803 805 804 805 802 799 794 788 784 778 773 769 766 767 763 761 759 757 750 743 741 735 733 730 727 726 725 727 729 732 737 738 739 736 738 747 749 748
814 817 821 819 803 804 803 801 800 804 803 800 795 787 783 776 771 768 767 762 761 760 759 756 749 745 742 736 733 730 728 729 727 728 730 733 739 740 741 741 744 745 745 745
812 818 815 810 800 799 798 800 804 809 802 795 788 785 779 772 763 764 766 767 767 765 759 761 753 747 746 735 741 731 728 729 731 731 733 737 739 744 748 749 749 749 752 749
804 808 807 804 799 801 800 803 810 808 803 796 790 784 779 775 773 773 774 773 770 768 764 760 756 751 749 742 734 721 725 728 732 731 737 739 742 746 749 752 752 753 750 750
Wind_Speed
5 9 9 4 2 2 3 6 2 3 4 6 3 4 3 11 12 13 15 16 16 16 19 21 21 19 18 18 19 19 19 18 17 16 14 13 13 12 12 12 12 11 11 11
8 11 5 2 1 4 6 6 6 5 1 6 7 7 3 10 13 14 15 16 17 17 17 21 22 22 22 22 21 21 20 19 20 17 16 14 13 12 12 13 13 14 13 13
10 8 2 5 4 8 8 11 6 8 9 11 10 12 5 5 9 12 14 15 17 17 18 19 23 25 25 25 25 24 23 22 20 18 16 15 11 12 13 14 15 16 15 15
2 2 3 5 6 7 11 5 9 10 9 8 2 6 5 6 9 13 15 16 17 18 17 18 23 26 27 28 26 26 26 24 22 21 18 18 18 17 15 15 16 17 17 17
5 3 4 5 3 4 4 7 8 10 12 14 14 8 7 3 7 10 12 14 15 16 18 19 23 27 28 28 28 28 27 27 25 24 23 21 19 17 16 16 15 17 17 18
9 2 5 4 2 3 7 9 10 11 11 14 16 16 11 8 4 5 10 3 8 13 17 19 24 26 30 30 30 29 29 30 28 27 26 24 22 18 17 18 18 18 19 20
6 2 3 5 7 6 8 11 8 8 9 11 6 10 9 1 12 9 9 9 11 10 12 15 20 25 29 31 32 31 31 31 31 30 28 28 26 23 18 17 19 19 20 21
6 7 2 4 5 7 7 9 7 7 9 3 5 6 6 7 12 8 10 10 11 11 13 10 14 25 30 33 34 33 32 32 32 32 31 29 28 26 24 21 20 20 20 20
3 3 2 1 5 5 5 7 8 9 11 8 9 7 4 9 8 8 9 10 13 14 14 12 12 16 28 34 37 37 34 34 35 34 32 31 30 29 27 25 24 21 21 19
3 5 3 1 4 6 8 6 6 6 5 8 5 4 9 9 5 8 11 13 14 15 17 17 15 18 22 32 36 37 38 36 35 36 35 33 32 31 30 27 26 25 23 22
3 4 8 4 6 5 5 9 8 8 6 8 8 3 9 4 6 12 14 17 17 18 19 19 19 26 24 26 33 38 39 38 36 37 36 34 33 31 31 32 29 27 25 22
3 4 7 6 3 6 11 8 10 9 8 8 9 12 5 4 8 15 19 19 18 18 19 20 21 28 26 15 26 32 37 37 36 34 34 37 34 32 31 32 32 29 28 27
1 3 7 8 7 6 10 8 7 8 8 13 12 6 5 3 15 15 19 21 20 19 20 19 19 22 25 16 20 27 31 35 35 33 35 35 35 34 34 33 32 32 30 30
1 10 11 12 12 6 11 11 11 12 10 13 18 19 19 17 17 19 18 17 19 19 20 18 18 19 24 23 18 24 28 31 33 33 35 35 37 37 36 35 33 33 32 31
5 10 11 13 14 15 15 16 17 18 18 20 21 24 21 19 21 18 16 16 19 18 20 19 19 18 24 24 17 22 25 27 30 30 32 33 34 34 34 32 34 33 32 33
3 8 8 13 15 15 19 19 19 21 22 24 23 26 21 18 15 14 13 17 19 20 19 20 19 20 21 23 19 21 23 25 26 28 31 30 29 29 30 31 32 31 33 34
8 7 6 12 2 9 12 18 19 20 19 20 20 19 18 18 19 19 17 16 20 19 19 20 20 20 20 20 22 20 22 19 19 26 28 28 28 28 29 29 29 30 31 31
4 6 6 9 8 15 4 6 10 12 14 17 21 17 17 17 19 21 15 20 14 15 16 18 22 26 23 20 23 22 21 22 21 26 27 28 26 25 25 24 27 29 30 30
4 6 6 6 10 14 17 7 8 12 16 18 12 14 14 14 18 16 10 7 14 18 20 21 25 26 26 23 24 25 21 18 22 30 25 25 26 25 28 27 27 30 30 29
5 5 7 10 14 12 7 6 8 13 18 5 12 16 17 17 14 12 19 20 20 24 27 26 27 27 22 24 22 25 23 17 22 24 22 23 25 29 24 23 23 29 31 29
7 6 9 9 12 9 7 7 6 11 9 16 18 21 22 19 15 20 20 20 24 23 26 28 29 26 26 18 19 22 25 21 10 5 13 17 17 18 18 21 24 25 23 21
5 4 7 4 9 11 4 12 13 17 23 24 25 25 26 23 21 20 20 19 15 20 22 23 24 18 17 11 12 9 6 5 5 8 11 12 12 14 15 26 16 9 15 16
5 4 7 7 9 17 16 14 14 15 17 18 19 20 21 22 21 21 18 15 13 14 16 16 14 11 11 8 8 5 6 9 14 15 14 12 8 10 15 23 19 13 4 8
6 6 7 10 5 13 16 16 13 16 20 18 21 20 19 21 21 19 14 11 6 8 11 13 11 11 10 13 3 7 6 10 12 13 13 10 9 9 7 11 11 10 10 7
8 1 9 12 13 12 12 14 15 15 17 18 15 14 16 16 15 11 2 3 5 10 17 12 13 14 14 17 11 7 7 10 12 12 8 7 7 8 7 4 1 4 5 8
5 8 7 10 13 11 13 14 10 11 12 12 10 12 11 11 7 9 9 12 13 12 16 19 18 17 19 11 19 25 15 16 17 18 15 15 15 11 5 6 8 5 3 3
Wind_Direction
195 239 209 353 95 351 314 306 8 337 92 312 353 301 247 185 205 200 201 195 200 198 193 191 193 192 192 190 191 197 196 192 192 194 199 201 205 206 207 211 207 201 196 196
214 241 83 255 270 278 290 288 289 276 273 305 306 314 214 186 202 209 204 204 203 200 197 196 194 196 199 194 198 199 203 198 195 201 205 210 211 210 209 206 205 204 202 199
243 79 166 232 226 262 240 284 297 307 313 282 292 271 168 169 193 207 215 212 209 207 202 196 197 200 199 202 199 202 204 203 202 201 202 204 208 214 206 203 205 206 206 204
84 82 242 245 258 287 275 53 295 284 289 278 312 281 171 177 187 208 214 213 214 210 210 207 203 205 206 204 203 205 205 204 205 203 203 205 203 205 205 204 204 202 205 206
104 155 194 240 0 286 309 323 286 284 270 270 249 245 248 222 235 213 216 216 219 216 217 215 210 210 214 209 207 205 206 205 205 205 209 206 215 210 204 205 197 205 202 206
109 118 33 14 218 301 310 274 250 249 250 251 247 259 256 216 232 90 43 174 225 226 221 221 222 213 215 215 212 207 203 205 204 204 207 210 209 221 207 203 201 204 207 209
161 121 111 352 246 195 275 259 256 231 219 250 260 227 244 20 81 60 52 43 25 343 229 229 218 220 217 215 214 211 204 205 205 205 207 209 212 213 214 207 212 210 210 213
227 175 235 15 360 330 308 305 297 276 274 262 95 240 222 113 96 63 56 38 24 12 354 323 231 221 221 219 215 213 208 206 205 205 207 209 211 214 217 215 218 215 216 214
244 182 148 47 319 282 119 244 12 288 247 262 256 197 203 174 101 31 29 20 12 1 354 347 319 276 225 220 219 212 212 210 205 206 206 207 210 213 217 219 214 218 218 217
72 270 168 102 258 202 283 7 229 206 263 255 225 239 258 147 24 2 4 6 359 353 347 343 331 313 263 223 220 216 211 211 210 206 207 208 210 213 215 214 216 218 219 220
309 265 132 243 207 310 209 225 235 304 280 285 273 245 80 88 359 351 345 351 348 346 342 338 334 330 300 226 217 217 213 210 210 211 204 207 209 212 214 216 216 217 219 219
54 294 273 289 56 272 258 282 264 251 215 241 290 277 136 86 350 348 335 334 340 343 336 335 337 329 320 235 221 219 216 213 210 210 206 205 210 210 213 216 218 219 221 221
65 238 261 200 179 188 230 213 259 273 285 256 268 244 146 304 326 338 333 329 335 338 339 334 339 338 330 284 230 227 220 218 214 208 208 212 211 212 216 218 220 220 222 222
257 266 257 283 336 328 215 232 238 265 269 271 252 270 283 304 323 323 318 322 322 329 334 338 336 338 325 307 253 234 227 222 218 212 212 212 213 213 215 217 216 218 219 219
264 266 274 269 278 275 264 263 265 256 259 262 278 290 296 309 308 315 313 314 317 325 329 334 335 331 328 315 278 247 231 227 222 215 216 215 217 217 215 215 217 216 218 223
235 281 284 275 264 264 267 264 259 256 260 266 275 277 287 296 313 302 306 313 316 317 324 326 329 327 326 316 303 259 241 231 225 225 219 219 215 217 219 217 215 214 214 216
255 278 253 276 11 287 268 257 254 260 261 267 273 293 315 305 305 307 305 307 306 314 329 326 324 323 320 315 300 285 246 240 236 231 228 220 215 215 217 221 223 220 218 219
239 247 274 277 291 262 30 343 309 297 291 295 296 317 338 324 315 309 311 294 317 324 323 323 317 314 313 314 303 282 266 217 215 253 234 219 215 214 215 221 226 224 223 222
247 264 287 268 282 310 296 5 333 317 296 310 313 317 321 327 316 285 286 357 325 316 314 310 318 316 305 296 308 288 270 243 220 216 223 225 211 203 201 210 224 229 225 224
202 248 261 292 291 288 1 21 340 311 278 4 326 314 319 323 306 308 337 323 310 307 310 309 303 304 312 295 296 290 270 249 238 228 222 223 219 215 214 210 215 230 227 225
224 241 256 281 278 274 349 40 321 270 330 323 310 305 304 302 300 300 301 295 295 304 308 308 299 286 287 292 287 284 260 241 227 206 216 217 224 233 225 211 220 234 225 226
266 287 273 271 266 277 25 313 296 307 307 303 299 297 293 294 298 297 296 291 308 302 311 317 304 283 276 255 270 269 254 172 184 196 174 145 159 172 190 217 184 137 178 196
247 257 314 296 303 324 318 301 319 308 296 296 287 292 291 290 289 292 294 297 294 316 316 323 328 307 302 296 238 202 166 122 116 117 108 107 98 118 138 132 127 149 163 141
226 250 257 294 281 317 316 306 299 324 311 308 292 293 300 293 294 292 287 278 316 333 346 339 354 344 358 352 220 181 164 158 139 122 123 114 111 86 58 110 149 175 175 177
290 195 273 279 274 311 300 339 341 331 313 309 309 301 292 298 292 293 30 16 8 22 24 7 19 28 3 32 325 69 153 172 157 146 129 98 144 132 116 90 128 187 214 213
210 249 268 310 320 316 323 340 8 333 335 348 353 349 349 354 42 50 38 34 42 32 33 9 20 19 3 26 33 31 69 115 117 95 91 100 104 122 148 176 100 84 91 204